Powrót do katalogu

CBERS 1 DEB

AktywnySSO
NORAD 30791·DEBRIS·🇧🇷 Brazil🇨🇳 China

Wystrzelony Oct 14, 1999 z Taiyuan Satellite Launch Center

Loading…

Następne Przeloty (najbliższe 24 godziny)

TLE

ŚwieżeSource: Space-Track

Epoka: Sep 14, 2026, 10:16 UTC

1 30791U 99057PA  26257.42798762  .00002773  00000-0  48597-3 0  9992
2 30791  98.5246 324.8452 0006136  55.7962   6.4071 14.68626533 31628

Śledź CBERS 1 DEB w czasie rzeczywistym z AllMySat

Download on the App Store